ANIK F1R

Last updated on Mon Sep 07 2026 00:02:57 GMT+0000 (Coordinated Universal Time)

1 28868U 05036A 26249.57050157 -.00000091 00000+0 00000+0 0 9998 2 28868 4.5151 75.5206 0003030 52.0890 316.1336 1.00271523 47279
UTC large
Height (km)
Speed (km/s)
/
Latitude / Longitude
Inclination (degrees)
Orbital Period (minutes)
Azimuth
Elevation
Range (km)
Doppler Factor

Next 0 passes for location: London (51.5072 / 0.1276)

No passes found over London.
ANIK F1R